Location: Unspecified
(40.8819°N, 0.0000°E)
Time: 22:22:13
(UTC+00:00)

EO-79 - Visible Passes

Search period start: 24 April 2024 00:00
Search period end: 04 May 2024 00:00
Orbit: 565 x 577 km, 98.0° (Epoch: 24 April)

Date Brightness Start Highest point End Pass type
(mag) Time Alt. Az. Time Alt. Az. Time Alt. Az.
24 Apr ? 02:44:34 10° NNE 02:48:30 44° E 02:49:33 36° SE visible
24 Apr ? 04:20:48 10° NNW 04:23:14 15° WNW 04:25:39 10° W visible
25 Apr ? 02:46:39 10° NNE 02:50:37 46° E 02:51:49 35° SE visible
25 Apr ? 04:23:02 10° NNW 04:25:19 15° WNW 04:27:36 10° W visible
26 Apr ? 02:48:43 10° NNE 02:52:43 49° E 02:54:01 35° SSE visible
26 Apr ? 04:25:14 10° NNW 04:27:23 14° WNW 04:29:32 10° W visible
27 Apr ? 02:50:45 10° NNE 02:54:46 52° E 02:56:12 34° SSE visible
27 Apr ? 04:27:24 10° NW 04:29:25 13° WNW 04:31:25 10° W visible
28 Apr ? 02:52:45 10° NNE 02:56:48 54° E 02:58:20 33° SSE visible
28 Apr ? 04:29:33 10° NW 04:31:25 13° WNW 04:33:16 10° W visible
29 Apr ? 02:54:44 10° NNE 02:58:48 57° E 03:00:27 32° SSE visible
29 Apr ? 04:31:42 10° NW 04:33:23 12° WNW 04:35:04 10° W visible
30 Apr ? 02:56:41 10° NNE 03:00:45 60° E 03:02:32 31° S visible
01 May ? 02:58:36 10° NNE 03:02:41 64° E 03:04:34 30° S visible
02 May ? 03:00:30 10° NNE 03:04:36 67° ESE 03:06:36 28° S visible
03 May ? 03:02:22 10° NNE 03:06:28 70° ESE 03:08:34 27° S visible
